| time (UTC) | temp C | wind direction | speed KPH | gust KPH | rain 1hr cm | rain 24hr cm | rain mn cm | humidity % | barometer mb |
| 20260509095213 | 4 | 242 | 1.6 | 6.4 | 0.00 | 0.00 | 0.00 | 48 | 1001.0 |
| 20260509094214 | 4 | 242 | 1.6 | 6.4 | 0.00 | 0.00 | 0.00 | 48 | 1001.0 |
| 20260509093213 | 4 | 317 | 1.6 | 6.4 | 0.00 | 0.00 | 0.00 | 49 | 1000.9 |
| 20260509092213 | 4 | 317 | 1.6 | 6.4 | 0.00 | 0.00 | 0.00 | 49 | 1000.9 |
| 20260509091213 | 5 | 300 | 0.0 | 3.2 | 0.00 | 0.00 | 0.00 | 46 | 1000.8 |
| 20260509090213 | 5 | 300 | 0.0 | 3.2 | 0.00 | 0.00 | 0.00 | 46 | 1000.8 |
| 20260509085214 | 5 | 335 | 0.0 | 11.3 | 0.00 | 0.00 | 0.00 | 47 | 1000.7 |
| 20260509084214 | 5 | 335 | 0.0 | 11.3 | 0.00 | 0.00 | 0.00 | 47 | 1000.7 |
| 20260509083215 | 5 | 315 | 0.0 | 3.2 | 0.00 | 0.00 | 0.00 | 49 | 1000.7 |
| 20260509082214 | 4 | 289 | 1.6 | 3.2 | 0.00 | 0.00 | 0.00 | 49 | 1000.6 |
| 20260509081215 | 4 | 289 | 1.6 | 3.2 | 0.00 | 0.00 | 0.00 | 49 | 1000.6 |
| 20260509080215 | 5 | 269 | 1.6 | 3.2 | 0.00 | 0.00 | 0.00 | 48 | 1000.4 |
| 20260509075214 | 5 | 269 | 1.6 | 3.2 | 0.00 | 0.00 | 0.00 | 48 | 1000.4 |
| 20260509074214 | 5 | 292 | 0.0 | 3.2 | 0.00 | 0.00 | 0.00 | 47 | 1000.5 |
| 20260509073215 | 5 | 292 | 0.0 | 3.2 | 0.00 | 0.00 | 0.00 | 47 | 1000.5 |
| 20260509072215 | 6 | 292 | 0.0 | 3.2 | 0.00 | 0.00 | 0.00 | 46 | 1000.5 |
| 20260509071215 | 6 | 292 | 0.0 | 3.2 | 0.00 | 0.00 | 0.00 | 46 | 1000.5 |
| 20260509070215 | 6 | 329 | 0.0 | 6.4 | 0.00 | 0.00 | 0.00 | 45 | 1000.8 |
| 20260509065214 | 6 | 329 | 0.0 | 6.4 | 0.00 | 0.00 | 0.00 | 45 | 1000.8 |
| 20260509064215 | 7 | 336 | 0.0 | 3.2 | 0.00 | 0.00 | 0.00 | 46 | 1001.2 |
| 20260509063214 | 7 | 336 | 0.0 | 3.2 | 0.00 | 0.00 | 0.00 | 46 | 1001.2 |
| 20260509062216 | 7 | 313 | 0.0 | 6.4 | 0.00 | 0.00 | 0.00 | 45 | 1001.1 |
| 20260509061216 | 7 | 313 | 0.0 | 6.4 | 0.00 | 0.00 | 0.00 | 45 | 1001.1 |
| 20260509060216 | 7 | 319 | 1.6 | 3.2 | 0.00 | 0.00 | 0.00 | 46 | 1000.9 |
| 20260509055216 | 7 | 319 | 1.6 | 3.2 | 0.00 | 0.00 | 0.00 | 46 | 1000.9 |
| 20260509054216 | 7 | 209 | 0.0 | 3.2 | 0.00 | 0.00 | 0.00 | 48 | 1001.1 |
| 20260509053216 | 7 | 209 | 0.0 | 3.2 | 0.00 | 0.00 | 0.00 | 48 | 1001.1 |
| 20260509052216 | 7 | 314 | 0.0 | 3.2 | 0.00 | 0.00 | 0.00 | 48 | 1000.9 |
| 20260509051216 | 7 | 314 | 0.0 | 1.6 | 0.00 | 0.00 | 0.00 | 47 | 1001.1 |
| 20260509050215 | 7 | 314 | 0.0 | 1.6 | 0.00 | 0.00 | 0.00 | 47 | 1001.1 |
| 20260509045216 | 7 | 314 | 0.0 | 4.8 | 0.00 | 0.00 | 0.00 | 46 | 1000.9 |
| 20260509044215 | 7 | 314 | 0.0 | 4.8 | 0.00 | 0.00 | 0.00 | 46 | 1000.9 |
| 20260509043216 | 7 | 301 | 0.0 | 3.2 | 0.00 | 0.00 | 0.00 | 44 | 1000.8 |
| 20260509042216 | 7 | 301 | 0.0 | 3.2 | 0.00 | 0.00 | 0.00 | 44 | 1000.8 |
| 20260509041215 | 8 | 301 | 0.0 | 3.2 | 0.00 | 0.00 | 0.00 | 42 | 1000.9 |
| 20260509040216 | 8 | 301 | 0.0 | 3.2 | 0.00 | 0.00 | 0.00 | 42 | 1000.9 |
| 20260509035216 | 9 | 330 | 0.0 | 8.0 | 0.00 | 0.00 | 0.00 | 41 | 1001.2 |
| 20260509034215 | 9 | 330 | 0.0 | 8.0 | 0.00 | 0.00 | 0.00 | 41 | 1001.2 |
| 20260509033216 | 10 | 342 | 1.6 | 9.7 | 0.00 | 0.00 | 0.00 | 41 | 1001.2 |
| 20260509032215 | 10 | 342 | 1.6 | 9.7 | 0.00 | 0.00 | 0.00 | 41 | 1001.2 |
| 20260509031215 | 10 | 334 | 3.2 | 6.4 | 0.00 | 0.00 | 0.00 | 43 | 1001.3 |
| 20260509030217 | 10 | 334 | 3.2 | 6.4 | 0.00 | 0.00 | 0.00 | 43 | 1001.3 |
| 20260509025217 | 10 | 36 | 1.6 | 11.3 | 0.00 | 0.00 | 0.00 | 43 | 1001.2 |
| 20260509024216 | 10 | 36 | 1.6 | 11.3 | 0.00 | 0.00 | 0.00 | 43 | 1001.2 |
| 20260509023217 | 10 | 290 | 6.4 | 14.5 | 0.00 | 0.00 | 0.00 | 43 | 1001.2 |
| 20260509022216 | 10 | 290 | 6.4 | 14.5 | 0.00 | 0.00 | 0.00 | 43 | 1001.2 |
| 20260509021217 | 10 | 340 | 1.6 | 3.2 | 0.00 | 0.00 | 0.00 | 39 | 1000.8 |
| 20260509020216 | 10 | 340 | 1.6 | 3.2 | 0.00 | 0.00 | 0.00 | 39 | 1000.8 |
| 20260509015217 | 12 | 204 | 0.0 | 9.7 | 0.00 | 0.00 | 0.00 | 36 | 1000.4 |
| 20260509014216 | 12 | 202 | 0.0 | 9.7 | 0.00 | 0.00 | 0.00 | 34 | 1000.3 |
| 20260509012216 | 13 | 219 | 1.6 | 12.9 | 0.00 | 0.00 | 0.00 | 32 | 1000.5 |
| 20260509011216 | 13 | 219 | 1.6 | 12.9 | 0.00 | 0.00 | 0.00 | 32 | 1000.5 |
| 20260509010217 | 13 | 206 | 1.6 | 9.7 | 0.00 | 0.00 | 0.00 | 31 | 1000.5 |
| 20260509005216 | 13 | 206 | 1.6 | 9.7 | 0.00 | 0.00 | 0.00 | 31 | 1000.5 |
| 20260509004216 | 13 | 252 | 1.6 | 12.9 | 0.00 | 0.00 | 0.00 | 32 | 1000.4 |
| 20260509003216 | 13 | 252 | 1.6 | 12.9 | 0.00 | 0.00 | 0.00 | 32 | 1000.4 |
| 20260509002216 | 14 | 248 | 1.6 | 14.5 | 0.00 | 0.00 | 0.00 | 31 | 1000.6 |
| 20260509001218 | 14 | 248 | 1.6 | 14.5 | 0.00 | 0.00 | 0.00 | 31 | 1000.6 |
| 20260509000219 | 14 | 22 | 1.6 | 11.3 | 0.00 | 0.00 | 0.00 | 31 | 1000.6 |
| 20260508235217 | 14 | 22 | 1.6 | 11.3 | 0.00 | 0.00 | 0.00 | 31 | 1000.6 |
| 20260508234218 | 14 | 336 | 6.4 | 14.5 | 0.00 | 0.00 | 0.00 | 32 | 1000.8 |
| 20260508233217 | 14 | 336 | 6.4 | 14.5 | 0.00 | 0.00 | 0.00 | 32 | 1000.8 |
| 20260508232217 | 14 | 238 | 1.6 | 12.9 | 0.00 | 0.00 | 0.00 | 32 | 1001.0 |
| 20260508231217 | 14 | 238 | 1.6 | 12.9 | 0.00 | 0.00 | 0.00 | 32 | 1001.0 |
| 20260508230218 | 14 | 146 | 1.6 | 14.5 | 0.00 | 0.00 | 0.00 | 33 | 1001.1 |
| 20260508225220 | 14 | 146 | 1.6 | 14.5 | 0.00 | 0.00 | 0.00 | 33 | 1001.1 |
| 20260508224217 | 13 | 229 | 1.6 | 11.3 | 0.00 | 0.00 | 0.00 | 33 | 1001.5 |
| 20260508221218 | 14 | 314 | 4.8 | 17.7 | 0.00 | 0.00 | 0.00 | 32 | 1001.8 |
| 20260508220217 | 14 | 314 | 4.8 | 17.7 | 0.00 | 0.00 | 0.00 | 32 | 1001.8 |
| 20260508215218 | 14 | 228 | 9.7 | 25.7 | 0.00 | 0.00 | 0.00 | 32 | 1001.9 |
| 20260508214218 | 14 | 228 | 9.7 | 25.7 | 0.00 | 0.00 | 0.00 | 32 | 1001.9 |
| 20260508213217 | 14 | 198 | 6.4 | 22.5 | 0.00 | 0.00 | 0.00 | 32 | 1002.1 |
| 20260508212217 | 14 | 198 | 6.4 | 22.5 | 0.00 | 0.00 | 0.00 | 32 | 1002.1 |
| 20260508211218 | 14 | 215 | 9.7 | 16.1 | 0.00 | 0.00 | 0.00 | 33 | 1002.3 |
| 20260508210218 | 14 | 215 | 9.7 | 16.1 | 0.00 | 0.00 | 0.00 | 33 | 1002.3 |
| 20260508205218 | 14 | 217 | 3.2 | 22.5 | 0.00 | 0.00 | 0.00 | 32 | 1002.5 |
| 20260508204218 | 14 | 217 | 3.2 | 22.5 | 0.00 | 0.00 | 0.00 | 32 | 1002.5 |
| 20260508190219 | 13 | 217 | 6.4 | 19.3 | 0.00 | 0.00 | 0.00 | 31 | 1004.1 |
| 20260508164220 | 13 | 84 | 6.4 | 14.5 | 0.00 | 0.00 | 0.00 | 33 | 1006.1 |
| 20260508163220 | 13 | 84 | 6.4 | 14.5 | 0.00 | 0.00 | 0.00 | 33 | 1006.1 |
| 20260508162219 | 12 | 217 | 1.6 | 14.5 | 0.00 | 0.00 | 0.00 | 32 | 1006.3 |
| 20260508161219 | 12 | 232 | 1.6 | 14.5 | 0.00 | 0.00 | 0.00 | 32 | 1006.5 |
| 20260508160219 | 12 | 232 | 1.6 | 14.5 | 0.00 | 0.00 | 0.00 | 32 | 1006.5 |
| 20260508154220 | 12 | 246 | 6.4 | 20.9 | 0.00 | 0.00 | 0.00 | 32 | 1006.6 |
| 20260508153220 | 11 | 173 | 6.4 | 12.9 | 0.00 | 0.00 | 0.00 | 33 | 1006.8 |
| 20260508152221 | 11 | 173 | 6.4 | 12.9 | 0.00 | 0.00 | 0.00 | 33 | 1006.8 |
| 20260508151221 | 10 | 318 | 4.8 | 12.9 | 0.00 | 0.00 | 0.00 | 35 | 1007.1 |
| 20260508150221 | 10 | 318 | 4.8 | 12.9 | 0.00 | 0.00 | 0.00 | 35 | 1007.1 |
| 20260508144220 | 10 | 340 | 6.4 | 16.1 | 0.00 | 0.00 | 0.00 | 38 | 1007.1 |
| 20260508143220 | 9 | 257 | 11.3 | 20.9 | 0.00 | 0.00 | 0.00 | 41 | 1007.2 |
| 20260508142220 | 9 | 257 | 11.3 | 20.9 | 0.00 | 0.00 | 0.00 | 41 | 1007.2 |
| 20260508141221 | 7 | 170 | 3.2 | 11.3 | 0.00 | 0.00 | 0.00 | 43 | 1007.5 |
| 20260508140221 | 7 | 170 | 3.2 | 11.3 | 0.00 | 0.00 | 0.00 | 43 | 1007.5 |
| 20260508134220 | 7 | 337 | 8.0 | 11.3 | 0.00 | 0.00 | 0.00 | 46 | 1007.6 |
| 20260508133220 | 6 | 232 | 1.6 | 16.1 | 0.00 | 0.00 | 0.00 | 48 | 1007.7 |
| 20260508132222 | 6 | 232 | 1.6 | 16.1 | 0.00 | 0.00 | 0.00 | 48 | 1007.7 |
| 20260508131221 | 6 | 135 | 3.2 | 12.9 | 0.00 | 0.00 | 0.00 | 49 | 1007.7 |
| 20260508130221 | 5 | 228 | 1.6 | 9.7 | 0.00 | 0.00 | 0.00 | 51 | 1007.8 |
| 20260508125221 | 5 | 228 | 1.6 | 9.7 | 0.00 | 0.00 | 0.00 | 51 | 1007.8 |
| 20260508124221 | 3 | 224 | 3.2 | 8.0 | 0.00 | 0.00 | 0.00 | 54 | 1007.8 |
| 20260508123222 | 3 | 224 | 3.2 | 8.0 | 0.00 | 0.00 | 0.00 | 54 | 1007.8 |
| 20260508122221 | 2 | 215 | 0.0 | 3.2 | 0.00 | 0.00 | 0.00 | 58 | 1007.8 |
| 20260508121221 | 2 | 215 | 0.0 | 3.2 | 0.00 | 0.00 | 0.00 | 58 | 1007.8 |
| 20260508120222 | 2 | 212 | 0.0 | 3.2 | 0.00 | 0.00 | 0.00 | 60 | 1007.7 |
| 20260508115222 | 2 | 212 | 0.0 | 3.2 | 0.00 | 0.00 | 0.00 | 60 | 1007.7 |
| 20260508114222 | 1 | 210 | 0.0 | 3.2 | 0.00 | 0.00 | 0.00 | 64 | 1007.7 |
| 20260508113222 | 1 | 210 | 0.0 | 3.2 | 0.00 | 0.00 | 0.00 | 64 | 1007.7 |
| 20260508112223 | 0 | 209 | 1.6 | 3.2 | 0.00 | 0.00 | 0.00 | 67 | 1007.7 |
| 20260508111222 | 0 | 209 | 1.6 | 3.2 | 0.00 | 0.00 | 0.00 | 67 | 1007.7 |
| 20260508110222 | 0 | 210 | 1.6 | 3.2 | 0.00 | 0.00 | 0.00 | 68 | 1007.7 |
| 20260508105223 | 0 | 210 | 1.6 | 3.2 | 0.00 | 0.00 | 0.00 | 68 | 1007.7 |
| 20260508104222 | -1 | 210 | 0.0 | 3.2 | 0.00 | 0.00 | 0.00 | 70 | 1007.8 |
| 20260508103223 | -1 | 210 | 0.0 | 3.2 | 0.00 | 0.00 | 0.00 | 70 | 1007.8 |
| 20260508102223 | -2 | 209 | 1.6 | 1.6 | 0.00 | 0.00 | 0.00 | 72 | 1007.8 |
| 20260508101222 | -2 | 209 | 1.6 | 1.6 | 0.00 | 0.00 | 0.00 | 72 | 1007.8 |
| 20260508100221 | -2 | 209 | 0.0 | 1.6 | 0.00 | 0.00 | 0.00 | 72 | 1007.9 |